This is the latest recevied weather packets stored in our database for station/object E20EHQ-13. If no packets are shown the sender has not sent any weather packets the latest 10 day(s).
| Time | Temp. | Humidity | Pressure | Rain* | Wind** | Luminosity | Snow |
|---|---|---|---|---|---|---|---|
| 1778136263 | 33.33° C | 67% | 1005.7 hPa | 0 mm | - | 899 W/m² | - |
| 1778135362 | 32.78° C | 68% | 1006.2 hPa | 0 mm | - | 753 W/m² | - |
| 1778135062 | 32.78° C | 69% | 1006.4 hPa | 0 mm | - | 901 W/m² | - |
| 1778134762 | 32.78° C | 69% | 1006.6 hPa | 0 mm | - | 521 W/m² | - |
| 1778134162 | 32.78° C | 68% | 1006.6 hPa | 0 mm | - | 207 W/m² | - |
| 1778133862 | 32.78° C | 68% | 1006.8 hPa | 0 mm | - | 131 W/m² | - |
| 1778133263 | 33.33° C | 68% | 1007.1 hPa | 0 mm | - | 155 W/m² | - |
| 1778132963 | 33.33° C | 68% | 1007.2 hPa | 0 mm | - | 143 W/m² | - |
| 1778132662 | 33.33° C | 67% | 1007.3 hPa | 0 mm | - | 207 W/m² | - |
| 1778132363 | 33.33° C | 67% | 1007.4 hPa | 0 mm | - | 226 W/m² | - |
| 1778131762 | 33.33° C | 67% | 1007.5 hPa | 0 mm | - | 362 W/m² | - |
| 1778131462 | 33.33° C | 68% | 1007.7 hPa | 0 mm | - | 557 W/m² | - |
| 1778130862 | 33.33° C | 67% | 1007.7 hPa | 0 mm | - | 231 W/m² | - |
| 1778130562 | 33.33° C | 67% | 1007.8 hPa | 0 mm | - | 239 W/m² | - |
| 1778130262 | 33.33° C | 67% | 1007.8 hPa | 0 mm | - | 241 W/m² | - |
| 1778129662 | 33.33° C | 68% | 1007.9 hPa | 0 mm | - | 310 W/m² | - |
| 1778129362 | 33.33° C | 70% | 1008 hPa | 0 mm | - | 323 W/m² | - |
| 1778129063 | 32.78° C | 70% | 1008 hPa | 0 mm | - | 336 W/m² | - |
| 1778128763 | 32.78° C | 71% | 1008.1 hPa | 0 mm | - | 421 W/m² | - |
| 1778128163 | 32.22° C | 72% | 1008.2 hPa | 0 mm | - | 335 W/m² | - |
| 1778127262 | 32.22° C | 73% | 1008.3 hPa | 0 mm | - | 270 W/m² | - |
| 1778126662 | 31.67° C | 73% | 1008.3 hPa | 0 mm | - | 245 W/m² | - |
| 1778126062 | 31.67° C | 73% | 1008.2 hPa | 0 mm | - | 186 W/m² | - |
| 1778124863 | 31.67° C | 75% | 1008.5 hPa | 0 mm | - | 146 W/m² | - |
| 1778096662 | 29.44° C | 88% | 1006.7 hPa | 0 mm | - | 1 W/m² | - |
* Rain latest hour (hover to see other rain measurements)
** Current wind speed in m/s (hover to see current wind gust speed)